Location: Koszewko
(53.2876°N, 14.9061°E)
Time: 22:14:08
(UTC+00:00)

Resurs 01 Rocket - Pass Details

Date: 03 March 2021
Orbit: 635 x 643 km, 98.0° (Epoch: 12 April)

Event Time Altitude Azimuth Distance (km) Brightness Sun altitude
Exits shadow 20:50:14 17° 281° (W) 1,602 4.1 -35.0°
Drops below altitude 10° 20:52:39 10° 314° (NW) 2,035 5.0 -35.3°
Sets 20:55:33 0° 334° (NNW) 2,951 6.0 -35.6°
